Surface/Precipitation History
02/08/2018 18:08  to  2/9/2018 18:08
Change End Date:
Date/Time
(MST)
Sf
Temp Chem Water Layer Surface Precipitation
Sfc Pvt Sub Frz Factor Pct Dpth DpthThk IcePct Cond Salin FI Type Intens Accum Rate
02/09/2018 18:06 Ice Warning 8.8F - 24F 32F 50 1% - - 99% 1 mhos 182 - None None - -
02/09/2018 17:59 Ice Warning 9.0F - 24F 32F 50 1% - - 99% 1 mhos 182 - None None - -
02/09/2018 17:51 Ice Warning 9.3F - 24F 32F 50 1% - - 99% 1 mhos 181 - None None - -
02/09/2018 17:49 Ice Warning 9.3F - 24F 32F 50 1% - - 99% 1 mhos 181 - None None - -
02/09/2018 17:39 Ice Warning 10.2F - 24F 32F 55 1% - - 99% 1 mhos 183 - None None - -
02/09/2018 17:36 Ice Warning 10.4F - 24F 32F 55 1% - - 99% 1 mhos 183 - None None - -
02/09/2018 17:29 Ice Warning 11.3F - 24F 32F 60 1% - - 99% 1 mhos 182 - None None - -
02/09/2018 17:21 Ice Warning 11.8F - 24F 32F 60 1% - - 99% 1 mhos 186 - None None - -
02/09/2018 17:19 Ice Warning 12.0F - 24F 32F 60 1% - - 99% 1 mhos 186 - None None - -
02/09/2018 17:09 Ice Warning 13.1F - 24F 32F 65 1% - - 99% 1 mhos 187 - None None - -
02/09/2018 17:06 Ice Warning 13.3F - 24F 32F 65 1% - - 99% 1 mhos 188 - None None - -
02/09/2018 16:59 Ice Warning 14.2F - 24F 32F 70 1% - - 99% 1 mhos 189 - None None - -
02/09/2018 16:51 Ice Warning 14.9F - 24F 32F 70 1% - - 99% 1 mhos 189 - None None - -
02/09/2018 16:49 Ice Warning 15.1F - 24F 32F 75 1% - - 99% 1 mhos 190 - None None - -
02/09/2018 16:39 Ice Warning 15.3F - 24F 32F 75 1% - - 99% 1 mhos 190 - None None - -
Date/Time
(MST)
Sf
Temp Chem Water Layer Surface Precipitation
Sfc Pvt Sub Frz Factor Pct Dpth DpthThk IcePct Cond Salin FI Type Intens Accum Rate
02/09/2018 16:36 Ice Warning 15.3F - 24F 32F 75 1% - - 99% 1 mhos 189 - None None - -
02/09/2018 16:29 Ice Warning 16.0F - 24F 32F 75 1% - - 99% 1 mhos 193 - None None - -
02/09/2018 16:21 Ice Warning 16.7F - 24F 32F 80 1% - - 99% 1 mhos 192 - None None - -
02/09/2018 16:18 Ice Warning 16.7F - 24F 32F 75 1% - - 99% 1 mhos 192 - None None - -
02/09/2018 16:08 Ice Warning 16.3F - 24F 32F 75 1% - - 99% 1 mhos 194 - None None - -
02/09/2018 16:07 Ice Warning 16.3F - 24F 32F 75 1% - - 99% 1 mhos 193 - None None - -
02/09/2018 15:58 Ice Warning 16.9F - 24F 32F 75 1% - - 99% 1 mhos 193 - None None - -
02/09/2018 15:52 Ice Warning 17.2F - 24F 32F 80 1% - - 99% 1 mhos 192 - None None - -
02/09/2018 15:48 Ice Warning 17.2F - 24F 32F 80 1% - - 99% 1 mhos 194 - None None - -
02/09/2018 15:38 Ice Warning 17.2F - 24F 32F 80 1% - - 99% 1 mhos 195 - None None - -
02/09/2018 15:37 Ice Warning 17.8F - 24F 32F 80 1% - - 99% 1 mhos 196 - None None - -
02/09/2018 15:28 Ice Warning 19.0F - 24F 32F 85 1% - - 99% 2 mhos 197 - None None - -
02/09/2018 15:22 Ice Warning 19.6F - 24F 32F 85 1% - - 98% 2 mhos 197 - None None - -
02/09/2018 15:18 Ice Warning 19.6F - 24F 32F 85 1% - - 98% 2 mhos 195 - None None - -
02/09/2018 15:08 Ice Warning 19.2F - 24F 32F 85 1% - - 99% 1 mhos 182 - None None - -
Date/Time
(MST)
Sf
Temp Chem Water Layer Surface Precipitation
Sfc Pvt Sub Frz Factor Pct Dpth DpthThk IcePct Cond Salin FI Type Intens Accum Rate
02/09/2018 15:07 Ice Warning 19.0F - 24F 32F 85 1% - - 99% 1 mhos 180 - None None - -
02/09/2018 14:58 Ice Warning 18.1F - 24F 32F 85 1% - - 99% 1 mhos 177 - None None - -
02/09/2018 14:51 Ice Warning 18.3F - 24F 32F 85 1% - - 99% 1 mhos 177 - None None - -
02/09/2018 14:48 Ice Warning 18.3F - 24F 32F 85 1% - - 99% 1 mhos 175 - None None - -
02/09/2018 14:38 Ice Warning 18.1F - 25F 32F 85 1% - - 99% 1 mhos 176 - None None - -
02/09/2018 14:36 Ice Warning 18.3F - 25F 32F 85 1% - - 99% 1 mhos 175 - None None - -
02/09/2018 14:28 Ice Warning 18.3F - 25F 32F 85 1% - - 99% 1 mhos 175 - None None - -
02/09/2018 14:21 Ice Warning 18.1F - 25F 32F 85 1% - - 99% 1 mhos 174 - None None - -
02/09/2018 14:18 Ice Warning 18.3F - 25F 32F 85 1% - - 99% 1 mhos 173 - None None - -
02/09/2018 14:08 Ice Warning 18.3F - 25F 32F 85 1% - - 99% 1 mhos 171 - None None - -
02/09/2018 14:06 Ice Warning 18.3F - 25F 32F 85 1% - - 99% 1 mhos 172 - None None - -
02/09/2018 13:58 Ice Warning 19.2F - 25F 32F 90 1% - - 99% 1 mhos 172 - None None - -
02/09/2018 13:51 Ice Warning 19.2F - 25F 32F 90 1% - - 99% 1 mhos 170 - None None - -
02/09/2018 13:48 Ice Warning 18.9F - 25F 32F 90 1% - - 99% 1 mhos 172 - None None - -
02/09/2018 13:38 Ice Warning 18.5F - 25F 32F 90 1% - - 99% 1 mhos 170 - None None - -
Date/Time
(MST)
Sf
Temp Chem Water Layer Surface Precipitation
Sfc Pvt Sub Frz Factor Pct Dpth DpthThk IcePct Cond Salin FI Type Intens Accum Rate
02/09/2018 13:36 Ice Warning 18.5F - 25F 32F 90 1% - - 99% 1 mhos 170 - None None - -
02/09/2018 13:28 Ice Warning 18.0F - 25F 32F 85 1% - - 99% 1 mhos 171 - None None - -
02/09/2018 13:21 Ice Warning 17.8F - 25F 32F 85 1% - - 99% 1 mhos 172 - None None - -
02/09/2018 13:18 Ice Warning 17.8F - 25F 32F 80 1% - - 99% 1 mhos 171 - None None - -
02/09/2018 13:07 Ice Warning 19.4F - 25F 32F 80 1% - - 99% 1 mhos 171 - None None - -
02/09/2018 13:06 Ice Warning 19.6F - 25F 32F 80 1% - - 99% 1 mhos 171 - None None - -
02/09/2018 12:57 Ice Warning 20.1F - 25F 32F 80 1% - - 99% 1 mhos 170 - None None - -
02/09/2018 12:51 Ice Warning 19.2F - 25F 32F 80 1% - - 99% 1 mhos 169 - None None - -
02/09/2018 12:47 Ice Warning 18.9F - 25F 32F 80 1% - - 99% 1 mhos 168 - None None - -
02/09/2018 12:37 Ice Warning 18.9F - 25F 32F 80 1% - - 99% 1 mhos 169 - None None - -
02/09/2018 12:36 Ice Warning 18.5F - 25F 32F 80 1% - - 99% 1 mhos 171 - None None - -
02/09/2018 12:27 Ice Warning 18.5F - 25F 32F 75 1% - - 99% 1 mhos 170 - None None - -
02/09/2018 12:21 Ice Warning 19.0F - 25F 32F 75 1% - - 99% 1 mhos 171 - None None - -
02/09/2018 12:17 Ice Warning 18.7F - 25F 32F 75 1% - - 99% 1 mhos 173 - None None - -
02/09/2018 12:07 Ice Warning 18.1F - 25F 32F 70 1% - - 99% 1 mhos 173 - None None - -
Date/Time
(MST)
Sf
Temp Chem Water Layer Surface Precipitation
Sfc Pvt Sub Frz Factor Pct Dpth DpthThk IcePct Cond Salin FI Type Intens Accum Rate
02/09/2018 12:06 Ice Warning 18.3F - 25F 32F 70 1% - - 99% 1 mhos 172 - None None - -
02/09/2018 11:57 Ice Warning 17.4F - 25F 32F 65 1% - - 99% 1 mhos 174 - None None - -
02/09/2018 11:51 Ice Warning 17.4F - 25F 32F 65 1% - - 99% 1 mhos 167 - None None - -
02/09/2018 11:47 Ice Warning 17.2F - 25F 32F 60 1% - - 99% 1 mhos 160 - None None - -
02/09/2018 11:37 Ice Warning 16.5F - 25F 32F 50 1% - - 99% 1 mhos 149 - None None - -
02/09/2018 11:36 Ice Warning 16.3F - 25F 32F 50 1% - - 99% 1 mhos 149 - None None - -
02/09/2018 11:27 Ice Warning 15.8F - 25F 32F 40 0% - - 99% 1 mhos 119 - None None - -
02/09/2018 11:21 Ice Warning 14.9F - 25F 32F 30 0% - - 100% 1 mhos 76 - None None - -
02/09/2018 11:17 Ice Warning 14.4F - 25F 32F 30 0% - - 100% 1 mhos 70 - None None - -
02/09/2018 11:07 Ice Warning 14.5F - 25F 32F 25 0% - - 100% 0 mhos 68 - None None - -
02/09/2018 11:06 Ice Warning 14.9F - 25F 32F 20 0% - - 100% 1 mhos 69 - None None - -
02/09/2018 10:57 Ice Warning 14.5F - 25F 32F 20 0% - - 100% 0 mhos 69 - None None - -
02/09/2018 10:51 Ice Warning 14.5F - 25F 32F 20 0% - - 100% 0 mhos 68 - None None - -
02/09/2018 10:47 Ice Warning 14.2F - 25F 32F 20 0% - - 100% 0 mhos 67 - None None - -
02/09/2018 10:37 Ice Warning 13.3F - 25F 32F 15 0% - - 100% 0 mhos 65 - None None - -
Date/Time
(MST)
Sf
Temp Chem Water Layer Surface Precipitation
Sfc Pvt Sub Frz Factor Pct Dpth DpthThk IcePct Cond Salin FI Type Intens Accum Rate
02/09/2018 10:36 Ice Warning 13.3F - 25F 32F 15 0% - - 100% 0 mhos 65 - None None - -
02/09/2018 10:27 Ice Warning 13.1F - 25F 32F 15 0% - - 100% 0 mhos 65 - None None - -
02/09/2018 10:21 Ice Warning 13.3F - 25F 32F 20 0% - - 100% 0 mhos 65 - None None - -
02/09/2018 10:17 Ice Warning 12.9F - 25F 32F 20 0% - - 100% 0 mhos 65 - None None - -
02/09/2018 10:06 Ice Warning 12.9F - 25F 32F 20 0% - - 100% 0 mhos 64 - None None - -
02/09/2018 10:06 Ice Warning 12.9F - 25F 32F 20 0% - - 100% 0 mhos 64 - None None - -
02/09/2018 09:56 Ice Warning 11.8F - 25F 32F 15 0% - - 100% 0 mhos 62 - Yes - - -
02/09/2018 09:51 Ice Warning 11.7F - 25F 32F 15 0% - - 100% 0 mhos 61 - None None - -
02/09/2018 09:46 Ice Warning 11.5F - 25F 32F 15 0% - - 100% 0 mhos 61 - None None - -
02/09/2018 09:36 Ice Warning 12.0F - 26F 32F 15 0% - - 100% 0 mhos 61 - None None - -
02/09/2018 09:36 Ice Warning 12.0F - 26F 32F 15 0% - - 100% 0 mhos 61 - None None - -
02/09/2018 09:26 Ice Warning 11.3F - 26F 32F 15 0% - - 100% 0 mhos 60 - None None - -
02/09/2018 09:21 Ice Warning 11.1F - 26F 32F 15 0% - - 100% 0 mhos 59 - None None - -
02/09/2018 09:16 Ice Warning 10.9F - 26F 32F 10 0% - - 100% 0 mhos 59 - None None - -
02/09/2018 09:06 Ice Warning 10.8F - 26F 32F 10 0% - - 100% 0 mhos 59 - Yes - - -
Date/Time
(MST)
Sf
Temp Chem Water Layer Surface Precipitation
Sfc Pvt Sub Frz Factor Pct Dpth DpthThk IcePct Cond Salin FI Type Intens Accum Rate
02/09/2018 09:06 Ice Warning 10.8F - 26F 32F 10 0% - - 100% 0 mhos 59 - Yes - - -
02/09/2018 08:56 Ice Warning 10.6F - 26F 32F 10 0% - - 100% 0 mhos 58 - Yes - - -
02/09/2018 08:51 Ice Warning 10.2F - 26F 32F 10 0% - - 100% 0 mhos 57 - Yes - - -
02/09/2018 08:46 Ice Warning 10.2F - 26F 32F 10 0% - - 100% 0 mhos 58 - Yes - - -
02/09/2018 08:36 Ice Warning 10.4F - 26F 32F 10 0% - - 100% 0 mhos 58 - None None - -
02/09/2018 08:36 Ice Warning 10.4F - 26F 32F 10 0% - - 100% 0 mhos 58 - None None - -
02/09/2018 08:26 Ice Warning 10.9F - 26F 32F 10 0% - - 100% 0 mhos 59 - None None - -
02/09/2018 08:21 Ice Warning 11.1F - 26F 32F 10 0% - - 100% 0 mhos 59 - None None - -
02/09/2018 08:16 Ice Warning 11.3F - 26F 32F 10 0% - - 100% 0 mhos 60 - None None - -
02/09/2018 08:06 Ice Warning 11.3F - 26F 32F 10 0% - - 100% 0 mhos 60 - Yes - - -
02/09/2018 08:06 Ice Warning 11.3F - 26F 32F 10 0% - - 100% 0 mhos 60 - Yes - - -
02/09/2018 07:56 Ice Warning 11.7F - 26F 32F 15 0% - - 100% 0 mhos 61 - Yes - - -
02/09/2018 07:51 Ice Warning 11.8F - 26F 32F 15 0% - - 100% 0 mhos 61 - Yes - - -
02/09/2018 07:46 Ice Warning 11.8F - 26F 32F 15 0% - - 100% 0 mhos 61 - Yes - - -
02/09/2018 07:36 Ice Warning 12.0F - 26F 32F 15 0% - - 100% 0 mhos 61 - Yes - - -
Date/Time
(MST)
Sf
Temp Chem Water Layer Surface Precipitation
Sfc Pvt Sub Frz Factor Pct Dpth DpthThk IcePct Cond Salin FI Type Intens Accum Rate
02/09/2018 07:36 Ice Warning 12.0F - 26F 32F 15 0% - - 100% 0 mhos 61 - Yes - - -
02/09/2018 07:26 Ice Warning 12.0F - 26F 32F 15 0% - - 100% 0 mhos 61 - Yes - - -
02/09/2018 07:21 Ice Warning 12.2F - 26F 32F 15 0% - - 100% 0 mhos 62 - Yes - - -
02/09/2018 07:16 Ice Warning 12.2F - 26F 32F 15 0% - - 100% 0 mhos 62 - Yes - - -
02/09/2018 07:06 Ice Warning 12.2F - 26F 32F 15 0% - - 100% 0 mhos 62 - Yes - - -
02/09/2018 07:06 Ice Warning 12.2F - 26F 32F 15 0% - - 100% 0 mhos 62 - Yes - - -
02/09/2018 06:55 Ice Warning 12.2F - 26F 32F 15 0% - - 100% 0 mhos 62 - Yes - - -
02/09/2018 06:51 Ice Warning 12.4F - 26F 32F 15 0% - - 100% 0 mhos 62 - Yes - - -
02/09/2018 06:45 Ice Warning 12.4F - 26F 32F 15 0% - - 100% 0 mhos 63 - Yes - - -
02/09/2018 06:37 Ice Warning 12.9F - 26F 32F 15 0% - - 100% 0 mhos 64 - Yes - - -
02/09/2018 06:35 Ice Warning 12.9F - 26F 32F 15 0% - - 100% 0 mhos 63 - Yes - - -
02/09/2018 06:25 Ice Warning 12.9F - 26F 32F 15 0% - - 100% 0 mhos 64 - Yes - - -
02/09/2018 06:22 Ice Warning 12.9F - 26F 32F 15 0% - - 100% 0 mhos 63 - Yes - - -
02/09/2018 06:15 Ice Warning 12.7F - 26F 32F 15 0% - - 100% 0 mhos 63 - Yes - - -
02/09/2018 06:06 Ice Warning 12.6F - 26F 32F 15 0% - - 100% 0 mhos 63 - Yes - - -
Date/Time
(MST)
Sf
Temp Chem Water Layer Surface Precipitation
Sfc Pvt Sub Frz Factor Pct Dpth DpthThk IcePct Cond Salin FI Type Intens Accum Rate
02/09/2018 06:05 Ice Warning 12.6F - 26F 32F 15 0% - - 100% 0 mhos 63 - Yes - - -
02/09/2018 05:55 Ice Warning 12.9F - 26F 32F 15 0% - - 100% 0 mhos 64 - Yes - - -
02/09/2018 05:52 Ice Warning 13.1F - 26F 32F 20 0% - - 100% 0 mhos 64 - Yes - - -
02/09/2018 05:45 Ice Warning 13.3F - 26F 32F 20 0% - - 100% 0 mhos 65 - Yes - - -
02/09/2018 05:37 Ice Warning 13.3F - 26F 32F 20 0% - - 100% 0 mhos 65 - Yes - - -
02/09/2018 05:35 Ice Warning 13.3F - 26F 32F 20 0% - - 100% 0 mhos 65 - Yes - - -
02/09/2018 05:25 Ice Warning 13.3F - 26F 32F 20 0% - - 100% 0 mhos 65 - Yes - - -
02/09/2018 05:22 Ice Warning 13.3F - 26F 32F 20 0% - - 100% 0 mhos 65 - Yes - - -
02/09/2018 05:15 Ice Warning 13.3F - 26F 32F 20 0% - - 100% 0 mhos 65 - Yes - - -
02/09/2018 05:07 Ice Warning 13.3F - 26F 32F 20 0% - - 100% 0 mhos 64 - Yes - - -
02/09/2018 05:05 Ice Warning 13.3F - 26F 32F 20 0% - - 100% 0 mhos 64 - Yes - - -
02/09/2018 04:55 Ice Warning 13.3F - 26F 32F 20 0% - - 100% 0 mhos 64 - Yes - - -
02/09/2018 04:52 Ice Warning 13.1F - 26F 32F 20 0% - - 100% 0 mhos 65 - Yes - - -
02/09/2018 04:45 Ice Warning 13.1F - 26F 32F 20 0% - - 100% 0 mhos 64 - Yes - - -
02/09/2018 04:37 Ice Warning 13.3F - 26F 32F 20 0% - - 100% 0 mhos 65 - Yes - - -
Date/Time
(MST)
Sf
Temp Chem Water Layer Surface Precipitation
Sfc Pvt Sub Frz Factor Pct Dpth DpthThk IcePct Cond Salin FI Type Intens Accum Rate
02/09/2018 04:35 Ice Warning 13.1F - 26F 32F 20 0% - - 100% 0 mhos 65 - Yes - - -
02/09/2018 04:25 Ice Warning 13.1F - 26F 32F 20 0% - - 100% 0 mhos 65 - None None - -
02/09/2018 04:22 Ice Warning 13.1F - 27F 32F 20 0% - - 100% 0 mhos 64 - Yes - - -
02/09/2018 04:15 Ice Warning 13.1F - 27F 32F 20 0% - - 100% 0 mhos 65 - Yes - - -
02/09/2018 04:07 Ice Warning 13.3F - 27F 32F 20 0% - - 100% 0 mhos 65 - Yes - - -
02/09/2018 04:05 Ice Warning 13.3F - 27F 32F 20 0% - - 100% 0 mhos 65 - Yes - - -
02/09/2018 03:54 Ice Warning 13.3F - 27F 32F 20 0% - - 100% 0 mhos 65 - Yes - - -
02/09/2018 03:52 Ice Warning 13.3F - 27F 32F 20 0% - - 100% 0 mhos 65 - Yes - - -
02/09/2018 03:44 Ice Warning 13.3F - 27F 32F 20 0% - - 100% 0 mhos 65 - None None - -
02/09/2018 03:37 Ice Warning 13.3F - 27F 32F 20 0% - - 100% 0 mhos 65 - Yes - - -
02/09/2018 03:34 Ice Warning 13.3F - 27F 32F 20 0% - - 100% 0 mhos 65 - Yes - - -
02/09/2018 03:24 Ice Warning 13.5F - 27F 32F 20 0% - - 100% 0 mhos 66 - None None - -
02/09/2018 03:22 Ice Warning 13.5F - 27F 32F 20 0% - - 100% 0 mhos 66 - None None - -
02/09/2018 03:14 Ice Warning 13.6F - 27F 32F 20 0% - - 100% 0 mhos 66 - None None - -
02/09/2018 03:07 Ice Warning 14.0F - 27F 32F 20 0% - - 100% 0 mhos 67 - None None - -
Date/Time
(MST)
Sf
Temp Chem Water Layer Surface Precipitation
Sfc Pvt Sub Frz Factor Pct Dpth DpthThk IcePct Cond Salin FI Type Intens Accum Rate
02/09/2018 03:04 Ice Warning 14.2F - 27F 32F 20 0% - - 100% 0 mhos 68 - Yes - - -
02/09/2018 02:54 Ice Warning 14.7F - 27F 32F 25 0% - - 100% 1 mhos 70 - None None - -
02/09/2018 02:52 Ice Warning 14.9F - 27F 32F 25 0% - - 100% 1 mhos 71 - None None - -
02/09/2018 02:44 Ice Warning 16.0F - 27F 32F 25 0% - - 100% 1 mhos 74 - None None - -
02/09/2018 02:37 Ice Warning 16.2F - 27F 32F 25 0% - - 100% 1 mhos 74 - None None - -
02/09/2018 02:34 Ice Warning 16.2F - 27F 32F 25 0% - - 100% 1 mhos 74 - None None - -
02/09/2018 02:24 Ice Warning 16.2F - 27F 32F 25 0% - - 100% 1 mhos 74 - Yes - - -
02/09/2018 02:22 Ice Warning 16.2F - 27F 32F 25 0% - - 100% 1 mhos 74 - None None - -
02/09/2018 02:14 Ice Warning 16.2F - 27F 32F 25 0% - - 100% 1 mhos 73 - Yes - - -
02/09/2018 02:07 Ice Warning 16.2F - 27F 32F 25 0% - - 100% 1 mhos 74 - Yes - - -
02/09/2018 02:04 Ice Warning 16.2F - 27F 32F 25 0% - - 100% 1 mhos 73 - Yes - - -
02/09/2018 01:54 Ice Warning 16.2F - 27F 32F 25 0% - - 100% 1 mhos 73 - Yes - - -
02/09/2018 01:52 Ice Warning 16.2F - 27F 32F 25 0% - - 100% 1 mhos 73 - None None - -
02/09/2018 01:44 Ice Warning 16.0F - 27F 32F 25 0% - - 100% 1 mhos 73 - Yes - - -
02/09/2018 01:37 Ice Warning 16.0F - 27F 32F 25 0% - - 100% 1 mhos 73 - None None - -
Date/Time
(MST)
Sf
Temp Chem Water Layer Surface Precipitation
Sfc Pvt Sub Frz Factor Pct Dpth DpthThk IcePct Cond Salin FI Type Intens Accum Rate
02/09/2018 01:34 Ice Warning 16.0F - 27F 32F 25 0% - - 100% 1 mhos 73 - None None - -
02/09/2018 01:24 Ice Warning 16.0F - 27F 32F 25 0% - - 100% 1 mhos 72 - None None - -
02/09/2018 01:22 Ice Warning 16.0F - 27F 32F 25 0% - - 100% 1 mhos 72 - None None - -
02/09/2018 01:14 Ice Warning 15.8F - 27F 32F 25 0% - - 100% 1 mhos 72 - Yes - - -
02/09/2018 01:07 Ice Warning 15.8F - 27F 32F 20 0% - - 100% 1 mhos 72 - Yes - - -
02/09/2018 01:04 Ice Warning 15.8F - 27F 32F 20 0% - - 100% 1 mhos 72 - Yes - - -
02/09/2018 00:54 Ice Warning 15.8F - 27F 32F 20 0% - - 100% 1 mhos 71 - Yes - - -
02/09/2018 00:52 Ice Warning 15.6F - 27F 32F 20 0% - - 100% 1 mhos 72 - Yes - - -
02/09/2018 00:43 Ice Warning 15.6F - 27F 32F 20 0% - - 100% 1 mhos 71 - Yes - - -
02/09/2018 00:37 Ice Warning 15.6F - 27F 32F 20 0% - - 100% 1 mhos 71 - None None - -
02/09/2018 00:33 Ice Warning 15.4F - 27F 32F 20 0% - - 100% 1 mhos 71 - Yes - - -
02/09/2018 00:23 Ice Warning 15.6F - 27F 32F 20 0% - - 100% 1 mhos 72 - Yes - - -
02/09/2018 00:22 Ice Warning 15.6F - 27F 32F 25 0% - - 100% 1 mhos 72 - Yes - - -
02/09/2018 00:13 Ice Warning 15.3F - 27F 32F 25 0% - - 100% 1 mhos 71 - Yes - - -
02/09/2018 00:07 Ice Warning 15.3F - 28F 32F 25 0% - - 100% 1 mhos 70 - Yes - - -
Date/Time
(MST)
Sf
Temp Chem Water Layer Surface Precipitation
Sfc Pvt Sub Frz Factor Pct Dpth DpthThk IcePct Cond Salin FI Type Intens Accum Rate
02/09/2018 00:03 Ice Warning 15.1F - 28F 32F 25 0% - - 100% 1 mhos 70 - Yes - - -
02/08/2018 23:53 Ice Warning 14.7F - 28F 32F 20 0% - - 100% 0 mhos 68 - Yes - - -
02/08/2018 23:52 Ice Warning 14.5F - 28F 32F 20 0% - - 100% 0 mhos 68 - Yes - - -
02/08/2018 23:43 Ice Warning 14.2F - 28F 32F 20 0% - - 100% 0 mhos 66 - Yes - - -
02/08/2018 23:37 Ice Warning 14.0F - 28F 32F 20 0% - - 100% 0 mhos 65 - Yes - - -
02/08/2018 23:33 Ice Warning 14.0F - 28F 32F 20 0% - - 100% 0 mhos 65 - Yes - - -
02/08/2018 23:23 Ice Warning 14.4F - 28F 32F 20 0% - - 100% 0 mhos 66 - Yes - - -
02/08/2018 23:22 Ice Warning 14.2F - 28F 32F 20 0% - - 100% 0 mhos 66 - Yes - - -
02/08/2018 23:13 Ice Warning 14.0F - 28F 32F 20 0% - - 100% 0 mhos 65 - Yes - - -
02/08/2018 23:07 Ice Warning 13.8F - 28F 32F 20 0% - - 100% 0 mhos 64 - Yes - - -
02/08/2018 23:03 Ice Warning 13.6F - 28F 32F 20 0% - - 100% 0 mhos 64 - Yes - - -
02/08/2018 22:53 Ice Warning 13.5F - 28F 32F 15 0% - - 100% 0 mhos 63 - Yes - - -
02/08/2018 22:52 Ice Warning 13.5F - 28F 32F 15 0% - - 100% 0 mhos 63 - Yes - - -
02/08/2018 22:43 Ice Warning 13.3F - 28F 32F 15 0% - - 100% 0 mhos 62 - None None - -
02/08/2018 22:37 Ice Warning 13.3F - 28F 32F 15 0% - - 100% 0 mhos 62 - None None - -
Date/Time
(MST)
Sf
Temp Chem Water Layer Surface Precipitation
Sfc Pvt Sub Frz Factor Pct Dpth DpthThk IcePct Cond Salin FI Type Intens Accum Rate
02/08/2018 22:33 Ice Warning 13.3F - 28F 32F 15 0% - - 100% 0 mhos 62 - None None - -
02/08/2018 22:23 Ice Warning 13.6F - 28F 32F 15 0% - - 100% 0 mhos 62 - Yes - - -
02/08/2018 22:22 Ice Warning 13.6F - 28F 32F 15 0% - - 100% 0 mhos 63 - None None - -
02/08/2018 22:13 Ice Warning 13.8F - 28F 32F 20 0% - - 100% 0 mhos 64 - None None - -
02/08/2018 22:07 Ice Warning 14.0F - 28F 32F 20 0% - - 100% 0 mhos 65 - None None - -
02/08/2018 22:03 Ice Warning 14.0F - 28F 32F 20 0% - - 100% 0 mhos 65 - None None - -
02/08/2018 21:53 Ice Warning 13.8F - 28F 32F 20 0% - - 100% 0 mhos 65 - Yes - - -
02/08/2018 21:52 Ice Warning 13.8F - 28F 32F 20 0% - - 100% 0 mhos 64 - Yes - - -
02/08/2018 21:42 Ice Warning 13.6F - 28F 32F 20 0% - - 100% 0 mhos 63 - Yes - - -
02/08/2018 21:37 Ice Warning 13.5F - 28F 32F 20 0% - - 100% 0 mhos 63 - None None - -
02/08/2018 21:32 Ice Warning 13.5F - 28F 32F 20 0% - - 100% 0 mhos 63 - Yes - - -
02/08/2018 21:22 Ice Warning 13.5F - 28F 32F 20 0% - - 100% 0 mhos 63 - Yes - - -
02/08/2018 21:22 Ice Warning 13.5F - 28F 32F 20 0% - - 100% 0 mhos 63 - Yes - - -
02/08/2018 21:12 Ice Warning 13.6F - 28F 32F 20 0% - - 100% 0 mhos 63 - Yes - - -
02/08/2018 21:07 Ice Warning 13.6F - 28F 32F 20 0% - - 100% 0 mhos 63 - Yes - - -
Date/Time
(MST)
Sf
Temp Chem Water Layer Surface Precipitation
Sfc Pvt Sub Frz Factor Pct Dpth DpthThk IcePct Cond Salin FI Type Intens Accum Rate
02/08/2018 21:02 Ice Warning 13.6F - 28F 32F 20 0% - - 100% 0 mhos 63 - Yes - - -
02/08/2018 20:52 Ice Warning 13.6F - 28F 32F 20 0% - - 100% 0 mhos 63 - None None - -
02/08/2018 20:52 Ice Warning 13.6F - 28F 32F 20 0% - - 100% 0 mhos 63 - None None - -
02/08/2018 20:42 Ice Warning 13.8F - 28F 32F 20 0% - - 100% 0 mhos 64 - Yes - - -
02/08/2018 20:37 Ice Warning 14.0F - 28F 32F 20 0% - - 100% 0 mhos 64 - None None - -
02/08/2018 20:32 Ice Warning 13.8F - 28F 32F 20 0% - - 100% 0 mhos 64 - Yes - - -
02/08/2018 20:22 Ice Warning 14.4F - 28F 32F 20 0% - - 100% 0 mhos 67 - Yes - - -
02/08/2018 20:22 Ice Warning 14.5F - 28F 32F 20 0% - - 100% 0 mhos 68 - Yes - - -
02/08/2018 20:12 Ice Warning 15.3F - 28F 32F 25 0% - - 100% 1 mhos 69 - Yes - - -
02/08/2018 20:07 Ice Warning 14.9F - 28F 32F 20 0% - - 100% 0 mhos 68 - None None - -
02/08/2018 20:02 Ice Warning 14.7F - 28F 32F 20 0% - - 100% 0 mhos 67 - Yes - - -
02/08/2018 19:52 Ice Warning 14.4F - 28F 32F 20 0% - - 100% 0 mhos 66 - Yes - - -
02/08/2018 19:52 Ice Warning 14.5F - 28F 32F 20 0% - - 100% 0 mhos 66 - Yes - - -
02/08/2018 19:42 Ice Warning 14.2F - 28F 32F 20 0% - - 100% 0 mhos 65 - Yes - - -
02/08/2018 19:37 Ice Warning 13.8F - 28F 32F 20 0% - - 100% 0 mhos 64 - Yes - - -
Date/Time
(MST)
Sf
Temp Chem Water Layer Surface Precipitation
Sfc Pvt Sub Frz Factor Pct Dpth DpthThk IcePct Cond Salin FI Type Intens Accum Rate
02/08/2018 19:32 Ice Warning 13.5F - 28F 32F 20 0% - - 100% 0 mhos 62 - Yes - - -
02/08/2018 19:22 Ice Warning 13.1F - 29F 32F 20 0% - - 100% 0 mhos 62 - Yes - - -
02/08/2018 19:22 Ice Warning 13.1F - 29F 32F 20 0% - - 100% 0 mhos 62 - Yes - - -
02/08/2018 19:12 Ice Warning 13.3F - 29F 32F 20 0% - - 100% 0 mhos 62 - Yes - - -
02/08/2018 19:07 Ice Warning 13.5F - 29F 32F 20 0% - - 100% 0 mhos 63 - Yes - - -
02/08/2018 19:02 Ice Warning 14.0F - 29F 32F 20 0% - - 100% 0 mhos 64 - None None - -
02/08/2018 18:52 Ice Warning 13.5F - 29F 32F 20 0% - - 100% 0 mhos 64 - Yes - - -
02/08/2018 18:52 Ice Warning 13.5F - 29F 32F 20 0% - - 100% 0 mhos 64 - Yes - - -
02/08/2018 18:42 Ice Warning 13.1F - 29F 32F 20 0% - - 100% 0 mhos 61 - Yes - - -
02/08/2018 18:37 Ice Warning 12.4F - 29F 32F 15 0% - - 100% 0 mhos 59 - None None - -
02/08/2018 18:31 Ice Warning 12.2F - 29F 32F 15 0% - - 100% 0 mhos 59 - None None - -
02/08/2018 18:21 Ice Warning 11.5F - 29F 32F 15 0% - - 100% 0 mhos 58 - Yes - - -
02/08/2018 18:21 Ice Warning 11.3F - 29F 32F 15 0% - - 100% 0 mhos 57 - Yes - - -
02/08/2018 18:11 Ice Warning 11.7F - 29F 32F 15 0% - - 100% 0 mhos 59 - Yes - - -
Change End Date:

Copyright © 1998-2015 Vaisala, Inc.
All Rights Reserved
Send comments about the data to:
SCAN Web ® is a registered trademark of Vaisala, Inc.
SCAN Web Version 6.0